Weather History for KFUL - August, 2014

Change the Weather History Date:

Tuesday, August 26, 2014

  Actual Average Record
Temperature  
Mean Temperature 77 °F 76 °F  
Max Temperature 88 °F 86 °F 101 °F (2009)
Min Temperature 66 °F 65 °F 61 °F (2009)
Degree Days  
Heating Degree Days 0 0  
Month to date heating degree days 0 0  
Since 1 June heating degree days 0 2  
Since 1 July heating degree days 0 0  
Cooling Degree Days 12 11  
Month to date cooling degree days 318 269  
Year to date cooling degree days 1288 811  
Since 1 June cooling degree days 930 688  
Growing Degree Days 27 (Base 50)    
Moisture  
Dew Point 58 °F    
Average Humidity 55    
Maximum Humidity 78    
Minimum Humidity 31    
Precipitation  
Precipitation 0.00 in 0.00 in 0.00 in ()
Month to date precipitation 0.10 0.04  
Year to date precipitation 3.56 9.73  
Since 1 July precipitation 0.10  
Snow  
Snow 0.00 in - - ()
Month to date snowfall 0.0  
Year to date snowfall 0.0  
Snow Depth 0.00 in    
Sea Level Pressure  
Sea Level Pressure 29.94 in    
Wind  
Wind Speed 3 mph (West)    
Max Wind Speed 12 mph    
Max Gust Speed 14 mph    
Visibility 10 miles    
Events      
T = Trace of Precipitation, MM = Missing Value Source: NWS Daily Summary

Daily Weather History Graph

Daily Weather History Graph

Search for Another Location

Airport or City:

Trip Planner

Search our weather history database for the weather conditions in past years. The results will help you decide how hot, cold, wet, or windy it might be!

Date:

Astronomy

Aug. 26, 2014 Rise Set
Actual Time 6:21 AM PDT 7:25 PM PDT
Civil Twilight 5:55 AM PDT 7:50 PM PDT
Nautical Twilight 5:25 AM PDT 8:21 PM PDT
Astronomical Twilight 4:53 AM PDT 8:52 PM PDT
Moon 7:21 AM PDT (8/26) 7:55 PM PDT (8/26)
Length of Visible Light 13h 55m
Length of Day
13h 03m
New Moon, 1% of the Moon is Illuminated
Aug 26
New Moon
Sep 2
First Quarter
Sep 8
Full
Sep 15
Last Quarter
Sep 23
New

Hourly Weather History & Observations

Time (PDT) Temp. Heat Index Dew Point Humidity Pressure Visibility Wind Dir Wind Speed Gust Speed Precip Events Conditions
12:53 AM 69.1 °F - 59.0 °F 70% 29.94 in 10.0 mi Calm Calm - N/A   Clear
2:53 AM 68.0 °F - 60.1 °F 76% 29.94 in 10.0 mi Calm Calm - N/A   Clear
3:53 AM 66.9 °F - 59.0 °F 76% 29.94 in 10.0 mi NW 3.5 mph - N/A   Clear
5:53 AM 66.9 °F - 59.0 °F 76% 29.94 in 10.0 mi Calm Calm - N/A   Clear
6:53 AM 66.9 °F - 59.0 °F 76% 29.95 in 8.0 mi Calm Calm - N/A   Clear
8:53 AM 73.9 °F - 59.0 °F 59% 29.96 in 10.0 mi North 3.5 mph - N/A   Clear
9:53 AM 78.1 °F - 59.0 °F 52% 29.96 in 10.0 mi Calm Calm - N/A   Clear
10:53 AM 81.0 °F 81.6 °F 60.1 °F 49% 29.96 in 10.0 mi Variable 4.6 mph - N/A   Clear
11:53 AM 84.0 °F 84.4 °F 61.0 °F 46% 29.96 in 10.0 mi SSW 6.9 mph - N/A   Clear
12:53 PM 84.9 °F 84.8 °F 60.1 °F 43% 29.95 in 10.0 mi SSW 6.9 mph - N/A   Clear
2:53 PM 87.1 °F 85.1 °F 54.0 °F 32% 29.92 in 10.0 mi North - - N/A   Clear
3:53 PM 87.1 °F 85.1 °F 54.0 °F 32% 29.91 in 10.0 mi Variable 6.9 mph - N/A   Clear
4:53 PM 88.0 °F 86.9 °F 57.9 °F 36% 29.90 in 10.0 mi SSW 5.8 mph - N/A   Clear
5:53 PM 84.9 °F 84.2 °F 57.9 °F 40% 29.90 in 10.0 mi Variable 5.8 mph - N/A   Clear
6:53 PM 81.0 °F 80.8 °F 55.9 °F 42% 29.91 in 10.0 mi WNW 5.8 mph - N/A   Clear
7:53 PM 78.1 °F - 53.1 °F 42% 29.92 in 10.0 mi Variable 3.5 mph - N/A   Clear
8:53 PM 75.9 °F - 57.9 °F 54% 29.95 in 10.0 mi West 4.6 mph - N/A   Clear
9:53 PM 73.9 °F - 60.1 °F 62% 29.96 in 10.0 mi Variable 3.5 mph - N/A   Clear
10:53 PM 73.0 °F - 60.1 °F 64% 29.96 in 10.0 mi Calm Calm - N/A   Clear
11:53 PM 72.0 °F - 61.0 °F 68% 29.97 in 10.0 mi Calm Calm - N/A   Clear